| time (UTC) | temp F | wind direction | speed MPH | gust MPH | rain 1hr in | rain 24hr in | rain mn in | humidity % | barometer mb |
| 20260503184512 | 64 | 218 | 2.0 | 2.0 | 0.00 | 0.00 | 0.00 | 40 | 1010.9 |
| 20260503184008 | 64 | 170 | 5.0 | 9.0 | 0.00 | 0.00 | 0.00 | 38 | 1011.2 |
| 20260503183505 | 64 | 288 | 6.0 | 7.0 | 0.00 | 0.00 | 0.00 | 38 | 1011.2 |
| 20260503183002 | 65 | 190 | 5.0 | 7.0 | 0.00 | 0.00 | 0.00 | 38 | 1011.2 |
| 20260503182500 | 64 | 145 | 5.0 | 8.0 | 0.00 | 0.00 | 0.00 | 41 | 1010.9 |
| 20260503181958 | 64 | 236 | 8.0 | 11.0 | 0.00 | 0.00 | 0.00 | 38 | 1011.6 |
| 20260503181455 | 63 | 297 | 3.0 | 4.0 | 0.00 | 0.00 | 0.00 | 40 | 1011.6 |
| 20260503180950 | 63 | 210 | 3.0 | 6.0 | 0.00 | 0.00 | 0.00 | 40 | 1011.6 |
| 20260503180449 | 62 | 223 | 8.0 | 11.0 | 0.00 | 0.00 | 0.00 | 40 | 1011.6 |
| 20260503175945 | 62 | 280 | 5.0 | 10.0 | 0.00 | 0.00 | 0.00 | 41 | 1011.9 |
| 20260503175443 | 62 | 288 | 7.0 | 10.0 | 0.00 | 0.00 | 0.00 | 40 | 1011.9 |
| 20260503174939 | 63 | 190 | 5.0 | 6.0 | 0.00 | 0.00 | 0.00 | 40 | 1011.9 |
| 20260503174437 | 62 | 176 | 2.0 | 3.0 | 0.00 | 0.00 | 0.00 | 42 | 1012.3 |
| 20260503173932 | 61 | 273 | 4.0 | 8.0 | 0.00 | 0.00 | 0.00 | 43 | 1011.9 |
| 20260503173428 | 62 | 195 | 4.0 | 7.0 | 0.00 | 0.00 | 0.00 | 42 | 1012.3 |
| 20260503172925 | 61 | 290 | 7.0 | 10.0 | 0.00 | 0.00 | 0.00 | 43 | 1012.3 |
| 20260503172423 | 61 | 184 | 1.0 | 2.0 | 0.00 | 0.00 | 0.00 | 43 | 1012.3 |
| 20260503171919 | 61 | 277 | 9.0 | 13.0 | 0.00 | 0.00 | 0.00 | 41 | 1012.3 |
| 20260503171416 | 61 | 208 | 4.0 | 7.0 | 0.00 | 0.00 | 0.00 | 43 | 1012.6 |
| 20260503170913 | 62 | 250 | 4.0 | 7.0 | 0.00 | 0.00 | 0.00 | 42 | 1012.6 |
| 20260503170409 | 62 | 274 | 8.0 | 9.0 | 0.00 | 0.00 | 0.00 | 42 | 1012.6 |
| 20260503150802 | 61 | 327 | 7.0 | 9.0 | 0.00 | 0.00 | 0.00 | 41 | 1013.3 |
| 20260503150257 | 60 | 187 | 3.0 | 4.0 | 0.00 | 0.00 | 0.00 | 42 | 1013.6 |
| 20260503140222 | 55 | 296 | 7.0 | 9.0 | 0.00 | 0.00 | 0.00 | 46 | 1013.6 |
| 20260503131152 | 49 | 233 | 3.0 | 4.0 | 0.00 | 0.00 | 0.00 | 56 | 1013.9 |
| 20260503130649 | 49 | 212 | 3.0 | 4.0 | 0.00 | 0.00 | 0.00 | 57 | 1014.3 |
| 20260503130147 | 48 | 209 | 2.0 | 3.0 | 0.00 | 0.00 | 0.00 | 58 | 1013.9 |
| 20260503120112 | 42 | 199 | 3.0 | 3.0 | 0.00 | 0.00 | 0.00 | 64 | 1014.3 |
| 20260503110539 | 38 | 191 | 0.0 | 0.0 | 0.00 | 0.00 | 0.00 | 71 | 1014.3 |
| 20260503090426 | 34 | 177 | 0.0 | 0.0 | 0.00 | 0.00 | 0.00 | 82 | 1015.3 |
| 20260503081353 | 35 | 176 | 0.0 | 0.0 | 0.00 | 0.00 | 0.00 | 80 | 1015.3 |
| 20260503080849 | 35 | 176 | 0.0 | 0.0 | 0.00 | 0.00 | 0.00 | 80 | 1015.3 |
| 20260503080347 | 35 | 176 | 0.0 | 0.0 | 0.00 | 0.00 | 0.00 | 80 | 1015.0 |
| 20260503072823 | 35 | 176 | 0.0 | 0.0 | 0.00 | 0.00 | 0.00 | 82 | 1015.3 |
| 20260503072320 | 35 | 176 | 0.0 | 0.0 | 0.00 | 0.00 | 0.00 | 82 | 1015.6 |
| 20260503071816 | 35 | 176 | 0.0 | 0.0 | 0.00 | 0.00 | 0.00 | 83 | 1015.3 |
| 20260503071314 | 35 | 176 | 0.0 | 0.0 | 0.00 | 0.00 | 0.00 | 83 | 1015.3 |
| 20260503070810 | 35 | 176 | 0.0 | 0.0 | 0.00 | 0.00 | 0.00 | 83 | 1015.3 |
| 20260503070308 | 35 | 177 | 0.0 | 0.0 | 0.00 | 0.00 | 0.00 | 83 | 1015.3 |
| 20260503060232 | 36 | 177 | 0.0 | 0.0 | 0.00 | 0.00 | 0.00 | 82 | 1016.1 |
| 20260503054719 | 36 | 176 | 0.0 | 0.0 | 0.00 | 0.00 | 0.00 | 83 | 1015.6 |
| 20260503054216 | 36 | 176 | 0.0 | 0.0 | 0.00 | 0.00 | 0.00 | 82 | 1016.1 |
| 20260503053714 | 36 | 177 | 0.0 | 0.0 | 0.00 | 0.00 | 0.00 | 82 | 1016.1 |
| 20260503053213 | 36 | 176 | 0.0 | 0.0 | 0.00 | 0.00 | 0.00 | 83 | 1016.1 |
| 20260503052709 | 36 | 176 | 0.0 | 0.0 | 0.00 | 0.00 | 0.00 | 82 | 1016.1 |
| 20260503052206 | 36 | 177 | 0.0 | 0.0 | 0.00 | 0.00 | 0.00 | 82 | 1016.1 |
| 20260503051700 | 36 | 177 | 0.0 | 0.0 | 0.00 | 0.00 | 0.00 | 82 | 1016.1 |
| 20260503051158 | 36 | 177 | 0.0 | 0.0 | 0.00 | 0.00 | 0.00 | 82 | 1016.1 |
| 20260503050655 | 36 | 177 | 0.0 | 0.0 | 0.00 | 0.00 | 0.00 | 82 | 1016.4 |
| 20260503050152 | 37 | 177 | 0.0 | 0.0 | 0.00 | 0.00 | 0.00 | 82 | 1016.1 |
| 20260503045649 | 37 | 176 | 0.0 | 0.0 | 0.00 | 0.00 | 0.00 | 81 | 1016.4 |
| 20260503045146 | 37 | 176 | 0.0 | 0.0 | 0.00 | 0.00 | 0.00 | 81 | 1016.1 |
| 20260503044643 | 37 | 176 | 0.0 | 0.0 | 0.00 | 0.00 | 0.00 | 79 | 1016.1 |
| 20260503044140 | 37 | 176 | 0.0 | 0.0 | 0.00 | 0.00 | 0.00 | 79 | 1016.1 |
| 20260503043637 | 37 | 176 | 0.0 | 0.0 | 0.00 | 0.00 | 0.00 | 80 | 1016.1 |
| 20260503043134 | 37 | 177 | 0.0 | 0.0 | 0.00 | 0.00 | 0.00 | 80 | 1016.4 |
| 20260503042630 | 37 | 176 | 0.0 | 0.0 | 0.00 | 0.00 | 0.00 | 79 | 1016.4 |
| 20260503042126 | 37 | 176 | 0.0 | 0.0 | 0.00 | 0.00 | 0.00 | 79 | 1016.4 |
| 20260503041623 | 37 | 176 | 0.0 | 0.0 | 0.00 | 0.00 | 0.00 | 80 | 1016.1 |
| 20260503041121 | 37 | 177 | 0.0 | 0.0 | 0.00 | 0.00 | 0.00 | 79 | 1016.4 |
| 20260503040618 | 38 | 176 | 0.0 | 0.0 | 0.00 | 0.00 | 0.00 | 79 | 1016.4 |
| 20260503040115 | 38 | 176 | 0.0 | 0.0 | 0.00 | 0.00 | 0.00 | 79 | 1016.8 |
| 20260503035612 | 38 | 176 | 0.0 | 0.0 | 0.00 | 0.00 | 0.00 | 78 | 1016.4 |
| 20260503035110 | 37 | 176 | 0.0 | 0.0 | 0.00 | 0.00 | 0.00 | 79 | 1016.4 |
| 20260503034607 | 38 | 176 | 0.0 | 0.0 | 0.00 | 0.00 | 0.00 | 80 | 1016.4 |
| 20260503034104 | 38 | 176 | 0.0 | 0.0 | 0.00 | 0.00 | 0.00 | 79 | 1016.8 |
| 20260503033601 | 38 | 176 | 0.0 | 0.0 | 0.00 | 0.00 | 0.00 | 79 | 1016.4 |
| 20260503033059 | 38 | 176 | 0.0 | 0.0 | 0.00 | 0.00 | 0.00 | 79 | 1016.4 |
| 20260503032557 | 38 | 176 | 0.0 | 0.0 | 0.00 | 0.00 | 0.00 | 78 | 1016.8 |
| 20260503032055 | 38 | 176 | 0.0 | 0.0 | 0.00 | 0.00 | 0.00 | 78 | 1016.8 |
| 20260503031552 | 38 | 176 | 0.0 | 0.0 | 0.00 | 0.00 | 0.00 | 79 | 1016.4 |
| 20260503031049 | 38 | 176 | 0.0 | 0.0 | 0.00 | 0.00 | 0.00 | 80 | 1016.4 |
| 20260503030545 | 38 | 177 | 0.0 | 0.0 | 0.00 | 0.00 | 0.00 | 79 | 1016.8 |
| 20260503030043 | 38 | 176 | 0.0 | 0.0 | 0.00 | 0.00 | 0.00 | 77 | 1016.4 |
| 20260503025539 | 39 | 177 | 0.0 | 0.0 | 0.00 | 0.00 | 0.00 | 77 | 1016.4 |
| 20260503025037 | 39 | 177 | 0.0 | 0.0 | 0.00 | 0.00 | 0.00 | 77 | 1016.8 |
| 20260503024533 | 39 | 177 | 0.0 | 0.0 | 0.00 | 0.00 | 0.00 | 76 | 1016.8 |
| 20260503024030 | 39 | 177 | 0.0 | 0.0 | 0.00 | 0.00 | 0.00 | 76 | 1016.4 |
| 20260503023527 | 39 | 177 | 0.0 | 0.0 | 0.00 | 0.00 | 0.00 | 75 | 1016.8 |
| 20260503023025 | 39 | 177 | 0.0 | 0.0 | 0.00 | 0.00 | 0.00 | 73 | 1016.8 |
| 20260503022520 | 39 | 177 | 0.0 | 0.0 | 0.00 | 0.00 | 0.00 | 72 | 1016.4 |
| 20260503022015 | 39 | 177 | 0.0 | 0.0 | 0.00 | 0.00 | 0.00 | 71 | 1016.8 |
| 20260503021512 | 39 | 177 | 0.0 | 0.0 | 0.00 | 0.00 | 0.00 | 71 | 1016.8 |
| 20260503021009 | 39 | 177 | 0.0 | 0.0 | 0.00 | 0.00 | 0.00 | 71 | 1016.8 |
| 20260503020507 | 40 | 177 | 0.0 | 0.0 | 0.00 | 0.00 | 0.00 | 71 | 1016.8 |
| 20260503020003 | 40 | 177 | 0.0 | 0.0 | 0.00 | 0.00 | 0.00 | 70 | 1016.8 |
| 20260503015500 | 40 | 177 | 0.0 | 0.0 | 0.00 | 0.00 | 0.00 | 69 | 1016.8 |
| 20260503014956 | 41 | 177 | 0.0 | 0.0 | 0.00 | 0.00 | 0.00 | 68 | 1016.4 |
| 20260503014453 | 41 | 177 | 0.0 | 0.0 | 0.00 | 0.00 | 0.00 | 68 | 1016.8 |
| 20260503013951 | 41 | 177 | 0.0 | 0.0 | 0.00 | 0.00 | 0.00 | 68 | 1016.8 |
| 20260503013448 | 41 | 177 | 0.0 | 0.0 | 0.00 | 0.00 | 0.00 | 68 | 1016.4 |
| 20260503012945 | 42 | 177 | 0.0 | 0.0 | 0.00 | 0.00 | 0.00 | 66 | 1016.8 |
| 20260503012443 | 42 | 177 | 0.0 | 0.0 | 0.00 | 0.00 | 0.00 | 65 | 1016.4 |
| 20260503011938 | 42 | 177 | 0.0 | 0.0 | 0.00 | 0.00 | 0.00 | 63 | 1016.4 |
| 20260503011436 | 43 | 177 | 0.0 | 0.0 | 0.00 | 0.00 | 0.00 | 61 | 1016.8 |
| 20260503010933 | 43 | 177 | 0.0 | 0.0 | 0.00 | 0.00 | 0.00 | 61 | 1016.4 |
| 20260503010429 | 44 | 177 | 0.0 | 0.0 | 0.00 | 0.00 | 0.00 | 59 | 1016.4 |
| 20260503005927 | 44 | 177 | 0.0 | 0.0 | 0.00 | 0.00 | 0.00 | 60 | 1016.4 |
| 20260503005424 | 44 | 177 | 0.0 | 0.0 | 0.00 | 0.00 | 0.00 | 58 | 1016.4 |
| 20260503004921 | 45 | 177 | 0.0 | 0.0 | 0.00 | 0.00 | 0.00 | 55 | 1016.1 |
| 20260503004417 | 46 | 177 | 0.0 | 0.0 | 0.00 | 0.00 | 0.00 | 53 | 1016.4 |
| 20260503003914 | 47 | 177 | 0.0 | 0.0 | 0.00 | 0.00 | 0.00 | 52 | 1016.4 |
| 20260503003411 | 47 | 182 | 0.0 | 0.0 | 0.00 | 0.00 | 0.00 | 50 | 1016.4 |
| 20260503002909 | 47 | 184 | 1.0 | 1.0 | 0.00 | 0.00 | 0.00 | 49 | 1016.4 |
| 20260503002406 | 47 | 168 | 0.0 | 0.0 | 0.00 | 0.00 | 0.00 | 50 | 1016.4 |
| 20260503001902 | 48 | 200 | 1.0 | 2.0 | 0.00 | 0.00 | 0.00 | 48 | 1016.4 |
| 20260503001358 | 48 | 198 | 1.0 | 1.0 | 0.00 | 0.00 | 0.00 | 47 | 1016.1 |
| 20260503000856 | 48 | 177 | 0.0 | 1.0 | 0.00 | 0.00 | 0.00 | 48 | 1016.1 |
| 20260503000353 | 48 | 178 | 1.0 | 1.0 | 0.00 | 0.00 | 0.00 | 48 | 1016.1 |
| 20260502235850 | 49 | 162 | 0.0 | 0.0 | 0.00 | 0.00 | 0.00 | 48 | 1016.4 |
| 20260502235347 | 49 | 170 | 0.0 | 0.0 | 0.00 | 0.00 | 0.00 | 47 | 1016.4 |
| 20260502234844 | 49 | 202 | 1.0 | 1.0 | 0.00 | 0.00 | 0.00 | 47 | 1016.4 |
| 20260502234341 | 49 | 185 | 0.0 | 1.0 | 0.00 | 0.00 | 0.00 | 46 | 1016.8 |
| 20260502233838 | 49 | 181 | 0.0 | 0.0 | 0.00 | 0.00 | 0.00 | 46 | 1016.4 |
| 20260502233334 | 49 | 222 | 1.0 | 2.0 | 0.00 | 0.00 | 0.00 | 46 | 1016.4 |
| 20260502232831 | 49 | 178 | 1.0 | 1.0 | 0.00 | 0.00 | 0.00 | 47 | 1016.1 |
| 20260502232327 | 49 | 209 | 2.0 | 3.0 | 0.00 | 0.00 | 0.00 | 48 | 1016.4 |
| 20260502231824 | 49 | 247 | 2.0 | 2.0 | 0.00 | 0.00 | 0.00 | 46 | 1016.4 |
| 20260502231322 | 49 | 171 | 0.0 | 0.0 | 0.00 | 0.00 | 0.00 | 46 | 1016.4 |
| 20260502230820 | 49 | 204 | 1.0 | 1.0 | 0.00 | 0.00 | 0.00 | 47 | 1016.4 |
| 20260502230318 | 49 | 292 | 4.0 | 4.0 | 0.00 | 0.00 | 0.00 | 46 | 1016.4 |
| 20260502225814 | 50 | 215 | 1.0 | 2.0 | 0.00 | 0.00 | 0.00 | 46 | 1016.4 |
| 20260502225311 | 50 | 245 | 2.0 | 2.0 | 0.00 | 0.00 | 0.00 | 46 | 1016.4 |
| 20260502224808 | 50 | 154 | 0.0 | 0.0 | 0.00 | 0.00 | 0.00 | 44 | 1016.4 |
| 20260502224304 | 50 | 192 | 2.0 | 2.0 | 0.00 | 0.00 | 0.00 | 44 | 1016.4 |
| 20260502223802 | 50 | 152 | 0.0 | 0.0 | 0.00 | 0.00 | 0.00 | 45 | 1016.4 |
| 20260502223300 | 50 | 161 | 2.0 | 3.0 | 0.00 | 0.00 | 0.00 | 44 | 1016.4 |
| 20260502222757 | 50 | 287 | 2.0 | 3.0 | 0.00 | 0.00 | 0.00 | 45 | 1016.4 |
| 20260502222254 | 50 | 188 | 2.0 | 2.0 | 0.00 | 0.00 | 0.00 | 45 | 1016.4 |
| 20260502221750 | 50 | 195 | 1.0 | 1.0 | 0.00 | 0.00 | 0.00 | 44 | 1016.4 |
| 20260502221246 | 50 | 230 | 2.0 | 2.0 | 0.00 | 0.00 | 0.00 | 44 | 1016.4 |
| 20260502220743 | 51 | 186 | 1.0 | 2.0 | 0.00 | 0.00 | 0.00 | 43 | 1016.1 |
| 20260502220239 | 50 | 281 | 2.0 | 3.0 | 0.00 | 0.00 | 0.00 | 44 | 1016.4 |
| 20260502215736 | 50 | 249 | 2.0 | 3.0 | 0.00 | 0.00 | 0.00 | 45 | 1016.4 |
| 20260502215233 | 49 | 304 | 3.0 | 3.0 | 0.00 | 0.00 | 0.00 | 45 | 1016.4 |
| 20260502214730 | 49 | 181 | 0.0 | 1.0 | 0.00 | 0.00 | 0.00 | 45 | 1016.4 |
| 20260502214227 | 49 | 252 | 2.0 | 2.0 | 0.00 | 0.00 | 0.00 | 46 | 1016.8 |
| 20260502213724 | 49 | 264 | 2.0 | 2.0 | 0.00 | 0.00 | 0.00 | 44 | 1016.4 |
| 20260502213222 | 50 | 292 | 3.0 | 3.0 | 0.00 | 0.00 | 0.00 | 45 | 1016.8 |
| 20260502212720 | 50 | 282 | 3.0 | 3.0 | 0.00 | 0.00 | 0.00 | 46 | 1016.8 |
| 20260502212218 | 49 | 200 | 1.0 | 1.0 | 0.00 | 0.00 | 0.00 | 44 | 1016.8 |
| 20260502211714 | 50 | 287 | 3.0 | 4.0 | 0.00 | 0.00 | 0.00 | 45 | 1016.4 |
| 20260502211211 | 50 | 185 | 1.0 | 2.0 | 0.00 | 0.00 | 0.00 | 45 | 1016.4 |
| 20260502210708 | 50 | 274 | 5.0 | 6.0 | 0.00 | 0.00 | 0.00 | 45 | 1016.8 |
| 20260502210205 | 49 | 291 | 3.0 | 3.0 | 0.00 | 0.00 | 0.00 | 43 | 1016.4 |
| 20260502205702 | 50 | 293 | 4.0 | 7.0 | 0.00 | 0.00 | 0.00 | 44 | 1016.8 |
| 20260502205158 | 50 | 135 | 0.0 | 0.0 | 0.00 | 0.00 | 0.00 | 43 | 1016.8 |
| 20260502204655 | 50 | 225 | 4.0 | 6.0 | 0.00 | 0.00 | 0.00 | 43 | 1016.8 |
| 20260502204153 | 50 | 261 | 1.0 | 2.0 | 0.00 | 0.00 | 0.00 | 45 | 1016.8 |
| 20260502203650 | 49 | 150 | 0.0 | 1.0 | 0.00 | 0.00 | 0.00 | 45 | 1016.8 |
| 20260502203149 | 49 | 140 | 1.0 | 1.0 | 0.00 | 0.00 | 0.00 | 45 | 1016.8 |
| 20260502202642 | 49 | 94 | 2.0 | 2.0 | 0.00 | 0.00 | 0.00 | 44 | 1016.8 |
| 20260502202141 | 49 | 293 | 2.0 | 3.0 | 0.00 | 0.00 | 0.00 | 44 | 1016.8 |
| 20260502201637 | 48 | 314 | 1.0 | 2.0 | 0.00 | 0.00 | 0.00 | 45 | 1017.1 |
| 20260502201134 | 49 | 348 | 3.0 | 4.0 | 0.00 | 0.00 | 0.00 | 44 | 1016.8 |
| 20260502200630 | 49 | 174 | 0.0 | 1.0 | 0.00 | 0.00 | 0.00 | 44 | 1017.1 |
| 20260502200127 | 49 | 209 | 1.0 | 2.0 | 0.00 | 0.00 | 0.00 | 45 | 1017.1 |
| 20260502195626 | 49 | 194 | 1.0 | 1.0 | 0.00 | 0.00 | 0.00 | 43 | 1017.1 |
| 20260502195121 | 49 | 147 | 0.0 | 0.0 | 0.00 | 0.00 | 0.00 | 43 | 1017.1 |
| 20260502194618 | 49 | 196 | 1.0 | 2.0 | 0.00 | 0.00 | 0.00 | 43 | 1017.4 |
| 20260502194114 | 49 | 203 | 2.0 | 2.0 | 0.00 | 0.00 | 0.00 | 45 | 1017.4 |
| 20260502193611 | 49 | 95 | 2.0 | 2.0 | 0.00 | 0.00 | 0.00 | 46 | 1017.4 |
| 20260502193108 | 49 | 216 | 2.0 | 3.0 | 0.00 | 0.00 | 0.00 | 43 | 1017.4 |
| 20260502192604 | 49 | 181 | 1.0 | 1.0 | 0.00 | 0.00 | 0.00 | 47 | 1017.8 |
| 20260502192102 | 48 | 269 | 2.0 | 3.0 | 0.00 | 0.00 | 0.00 | 45 | 1017.4 |
| 20260502191558 | 49 | 158 | 0.0 | 1.0 | 0.00 | 0.00 | 0.00 | 45 | 1017.4 |
| 20260502191055 | 49 | 237 | 2.0 | 4.0 | 0.00 | 0.00 | 0.00 | 45 | 1017.4 |
| 20260502190553 | 49 | 54 | 2.0 | 3.0 | 0.00 | 0.00 | 0.00 | 43 | 1017.8 |
| 20260502190050 | 49 | 263 | 2.0 | 3.0 | 0.00 | 0.00 | 0.00 | 42 | 1017.4 |
| 20260502185544 | 49 | 219 | 1.0 | 2.0 | 0.00 | 0.00 | 0.00 | 46 | 1017.4 |
| 20260502185042 | 49 | 224 | 3.0 | 4.0 | 0.00 | 0.00 | 0.00 | 44 | 1017.8 |